Torna al catalogo

SL-8 R/B

AttivoPO
NORAD 11668·ROCKET BODY·🇷🇺 Russia

Lanciato Jan 14, 1980 da Plesetsk Cosmodrome

Loading…

Prossimi Passaggi (prossime 24 ore)

TLE

AggiornatoSource: Space-Track

Epoca: Sep 14, 2026, 10:38 UTC

1 11668U 80003B   26257.44307398  .00000134  00000-0  12287-3 0  9994
2 11668  82.9458  63.7870 0020637 231.0484 157.2103 13.75950113336704

Traccia SL-8 R/B in tempo reale con AllMySat

Download on the App Store